Probability
0 0 0 0 0 0 0 0 0 0 0 0 0 0 0 0 0 0 0 0 0 0 0 0 0 0 0 0 0 0 0 0 0 0 0 0 0 0 0 0 0 0 0
0 0 0 0 0 0 0 0 0 0 0 0 0 0 0 0 0 0 0 0 0 0 0 0 0 0 0 0 0 0 0 0 0 0 0 0 0 0 0 0 0 0 0
0 0 0 0 0 0 0 0 0 0 0 0 0 0 0 0 0 0 0 0 0 0 0 0 0 0 0 0 0 0 0 0 0 0 0 0 0 0 0 0 0 0 0
0 0 0 0 0 0 0 0 0 0 0 0 0 0 0 0 0 0 0 0 0 0 0 0 0 0 0 0 0 0 0 0 0 0 0 0 0 0 0 0 0 0 0
0 0 0 0 0 0 0 0 0 0 0 0 0 0 0 0 0 0 0 0 0 0 0 0 0 0 0 0 0 0 0 0 0 0 0 0 0 0 0 0 0 0 0
0 0 0 0 0 0 0 0 0 0 0 0 0 0 0 0 0 0 0 0 0 0 0 0 0 0 0 0 0 0 0 0 0 0 0 0 0 0 0 0 0 0 0
0 0 0 0 0 0 0 0 0 0 0 0 0 0 0 0 0 0 0 0 0 0 0 0 0 0 0 0 0 0 0 0 0 0 0 0 0 0 0 0 0 0 0
0 0 0 0 0 0 0 0 0 0 0 0 0 0 0 0 0 0 0 0 0 0 0 0 0 0 0 0 0 0 0 0 0 0 0 0 0 0 0 0 0 0 0
0 0 0 0 0 0 0 0 0 0 0 0 0 0 0 0 0 0 0 0 0 0 0 0 0 0 0 0 0 0 0 0 0 0 0 0 0 0 0 0 0 0 0
0 0 0 0 0 0 0 0 0 0 0 0 0 0 0 0 0 0 0 0 0 0 0 0 0 0 0 0 0 0 0 0 0 0 0 0 0 0 0 0 0 0 0
0 0 0 0 0 0 0 0 0 0 0 0 0 0 0 0 0 0 0 0 0 0 0 0 0 0 0 0 0 0 0 0 0 0 0 0 0 0 0 0 0 0 0
0 0 0 0 0 0 0 0 0 0 0 0 0 0 0 0 0 0 0 0 0 0 0 0 0 0 0 0 0 0 0 0 0 0 0 0 0 0 0 0 0 0 0
0 0 0 0 0 0 0 0 0 0 0 0 0 0 0 0 0 0 0 0 0 0 0 0 0 0 0 0 0 0 0 0 0 0 0 0 0 0 0 0 0 0 0
0 0 0 0 0 0 0 0 0 0 0 0 0 0 0 0 0 0 0 0 0 0 0 0 0 0 0 0 0 0 0 0 0 0 0 0 0 0 0 0 0 0 0
0 0 0 0 0 0 0 0 0 0 0 0 0 0 0 0 0 0 0 0 0 0 0 0 0 0 0 0 0 0 0 0 0 0 0 0 0 0 0 0 0 0 0
0 0 0 0 0 0 0 0 0 0 0 0 0 0 0 0 0 0 0 0 0 0 0 0 0 0 0 0 0 0 0 0 0 0 0 0 0 0 0 0 0 0 0
0 0 0 0 0 0 0 0 0 0 0 0 0 0 0 0 0 0 0 0 0 0 0 0 0 0 0 0 0 0 0 0 0 0 0 0 0 0 0 0 0 0 0
0 0 0 0 0 0 0 0 0 0 0 0 0 0 0 0 0 0 0 0 0 0 0 0 0 0 0 0 0 0 0 0 0 0 0 0 0 0 0 0 0 0 0
0 0 0 0 0 0 0 0 0 0 0 0 0 0 0 0 0 0 0 0 0 0 0 0 0 0 0 0 0 0 0 0 0 0 0 0 0 0 0 0 0 0 0
0 0 0 0 0 0 0 0 0 0 0 0 0 0 0 0 0 0 0 0 0 0 0 0 0 0 0 0 0 0 0 0 0 0 0 0 0 0 0 0 0 0 0
0 0 0 0 0 0 0 0 0 0 0 0 0 0 0 0 0 0 0 0 0 0 0 0 0 0 0 0 0 0 0 0 0 0 0 0 0 0 0 0 0 0 0
0 0 0 0 0 0 0 0 0 0 0 0 0 0 0 0 0 0 0 0 0 0 0 0 0 0 0 0 0 0 0 0 0 0 0 0 0 0 0 0 0 0 0
0 0 0 0 0 0 0 0 0 0 0 0 0 0 0 0 0 0 0 0 0 0 0 0 0 0 0 0 0 0 0 0 0 0 0 0 0 0 0 0 0 0 0
0 0 0 0 0 0 0 0 0 0 0 0 0 0 0 0 0 0 0 0 0 0 0 0 0 0 0 0 0 0 0 0 0 0 0 0 0 0 0 0 0 0 0
0 0 0 0 0 0 0 0 0 0 0 0 0 0 0 0 0 0 0 0 0 0 0 0 0 0 0 0 0 0 0 0 0 0 0 0 0 0 0 0 0 0 0
0 0 0 0 0 0 0 0 0 0 0 0 0 0 0 0 0 0 0 0 0 0 0 0 0 0 0 0 0 0 0 0 0 0 0 0 0 0 0 0 0 0 0
Height
5678 5682 5685 5687 5688 5688 5688 5687 5686 5685 5684 5681 5678 5675 5672 5669 5665 5660 5656 5650 5645 5638 5631 5624 5616 5608 5600 5592 5584 5575 5565 5556 5549 5543 5529 5517 5503 5489 5474 5459 5443 5428 5414
5670 5674 5677 5679 5680 5680 5679 5679 5678 5677 5675 5672 5669 5666 5662 5658 5654 5649 5644 5639 5632 5624 5616 5609 5601 5592 5583 5574 5565 5555 5546 5535 5526 5519 5509 5494 5478 5460 5444 5427 5410 5394 5384
5663 5668 5670 5672 5672 5672 5672 5671 5670 5668 5665 5663 5659 5656 5652 5648 5643 5638 5632 5626 5618 5610 5601 5593 5585 5575 5565 5556 5546 5536 5526 5515 5502 5492 5483 5468 5451 5431 5414 5398 5384 5372 5365
5657 5661 5664 5665 5665 5665 5664 5663 5661 5659 5656 5653 5650 5646 5642 5637 5632 5626 5620 5612 5604 5595 5586 5577 5568 5558 5548 5538 5528 5517 5505 5492 5478 5464 5452 5437 5420 5402 5386 5376 5368 5358 5352
5652 5655 5657 5658 5659 5658 5657 5655 5653 5650 5647 5644 5640 5636 5631 5626 5620 5613 5606 5598 5589 5580 5571 5561 5552 5542 5531 5520 5509 5496 5481 5466 5451 5436 5422 5407 5392 5379 5368 5360 5354 5348 5342
5647 5649 5651 5652 5651 5650 5649 5647 5644 5641 5638 5634 5630 5626 5620 5614 5607 5600 5592 5584 5575 5565 5556 5546 5536 5526 5515 5503 5489 5473 5456 5439 5422 5407 5393 5380 5371 5361 5354 5348 5343 5339 5334
5641 5643 5644 5644 5643 5642 5640 5638 5635 5632 5629 5625 5620 5615 5609 5602 5595 5587 5578 5569 5560 5550 5540 5530 5520 5509 5496 5482 5468 5451 5433 5412 5394 5381 5371 5362 5355 5349 5344 5339 5334 5329 5324
5635 5636 5637 5636 5635 5634 5632 5629 5627 5623 5620 5615 5609 5603 5597 5589 5582 5574 5565 5556 5546 5536 5525 5514 5502 5489 5474 5460 5445 5429 5409 5391 5376 5364 5356 5350 5343 5338 5334 5329 5325 5321 5316
5628 5629 5629 5629 5627 5626 5624 5622 5618 5614 5610 5604 5598 5592 5585 5577 5569 5561 5552 5543 5533 5522 5510 5498 5484 5470 5454 5438 5422 5406 5390 5374 5362 5353 5346 5341 5335 5329 5323 5319 5315 5311 5308
5622 5623 5622 5622 5621 5619 5616 5613 5609 5604 5599 5593 5587 5580 5573 5565 5557 5548 5539 5530 5520 5509 5495 5480 5465 5448 5431 5413 5397 5384 5373 5363 5353 5345 5339 5332 5326 5320 5314 5309 5304 5300 5297
5617 5617 5616 5615 5614 5611 5608 5604 5599 5594 5589 5583 5576 5569 5562 5554 5545 5535 5525 5514 5502 5490 5475 5460 5444 5426 5409 5393 5379 5369 5360 5353 5346 5338 5331 5325 5319 5313 5307 5301 5295 5290 5286
5612 5611 5610 5609 5606 5603 5599 5595 5590 5584 5578 5572 5564 5557 5549 5541 5531 5521 5509 5497 5484 5471 5455 5439 5422 5406 5391 5378 5368 5359 5352 5344 5337 5331 5324 5317 5311 5305 5299 5293 5286 5281 5276
5606 5605 5604 5601 5598 5594 5590 5585 5580 5574 5568 5561 5554 5546 5537 5528 5517 5506 5494 5481 5466 5451 5435 5418 5402 5388 5377 5367 5359 5352 5345 5337 5331 5324 5317 5310 5303 5297 5291 5286 5279 5274 5268
5601 5599 5597 5594 5590 5586 5581 5575 5570 5564 5557 5550 5543 5534 5525 5515 5504 5492 5479 5465 5450 5434 5417 5401 5387 5376 5367 5360 5352 5345 5338 5331 5324 5318 5310 5303 5296 5289 5283 5278 5273 5268 5263
5595 5592 5589 5585 5581 5576 5571 5566 5560 5553 5546 5539 5531 5522 5512 5502 5489 5476 5461 5447 5431 5416 5400 5388 5377 5368 5360 5352 5345 5338 5332 5325 5318 5311 5304 5297 5290 5283 5277 5271 5266 5261 5256
5588 5585 5581 5577 5572 5567 5562 5556 5549 5543 5535 5527 5518 5508 5497 5485 5472 5458 5442 5426 5411 5398 5386 5377 5369 5362 5354 5347 5340 5334 5327 5320 5313 5306 5299 5292 5285 5278 5272 5265 5260 5255 5250
5580 5576 5572 5568 5563 5558 5552 5546 5539 5531 5522 5513 5503 5493 5481 5468 5455 5440 5424 5408 5395 5385 5377 5369 5363 5356 5349 5343 5336 5330 5323 5316 5309 5302 5294 5287 5280 5273 5267 5261 5255 5250 5245
5572 5568 5564 5560 5554 5549 5543 5536 5529 5521 5511 5501 5490 5478 5465 5451 5436 5422 5407 5394 5383 5376 5370 5364 5358 5352 5345 5339 5333 5326 5320 5312 5305 5297 5290 5282 5275 5268 5262 5256 5250 5245 5241
5564 5560 5556 5551 5546 5540 5533 5526 5518 5509 5500 5489 5478 5464 5449 5432 5416 5403 5392 5383 5376 5370 5365 5360 5354 5349 5343 5337 5330 5324 5317 5309 5301 5294 5286 5278 5271 5264 5257 5251 5245 5240 5237
5557 5552 5547 5542 5536 5530 5523 5516 5507 5497 5487 5475 5462 5449 5434 5416 5401 5389 5380 5374 5370 5366 5362 5357 5352 5347 5341 5335 5329 5322 5315 5307 5299 5291 5283 5275 5268 5260 5253 5247 5242 5237 5234
5549 5544 5539 5533 5527 5521 5513 5504 5495 5484 5473 5460 5445 5431 5415 5400 5388 5379 5373 5370 5367 5363 5360 5356 5351 5346 5341 5334 5328 5321 5313 5305 5297 5289 5281 5273 5266 5258 5251 5245 5239 5235 5232
5540 5535 5530 5524 5518 5510 5502 5492 5482 5471 5458 5444 5428 5411 5396 5385 5377 5372 5369 5367 5365 5363 5359 5355 5351 5346 5341 5335 5328 5320 5313 5305 5297 5289 5281 5272 5265 5257 5250 5244 5239 5235 5233
5532 5527 5521 5515 5508 5499 5490 5480 5468 5456 5442 5427 5411 5396 5383 5375 5370 5368 5368 5367 5365 5363 5359 5356 5351 5347 5341 5335 5329 5322 5314 5307 5299 5290 5282 5274 5266 5258 5251 5244 5239 5236 5235
5525 5519 5512 5505 5497 5488 5478 5466 5454 5440 5425 5410 5395 5384 5375 5370 5368 5368 5368 5367 5365 5363 5360 5356 5352 5348 5342 5336 5330 5323 5317 5309 5302 5293 5285 5276 5268 5260 5253 5248 5243 5240 5239
5517 5510 5503 5495 5486 5476 5464 5452 5438 5424 5409 5396 5385 5376 5371 5369 5368 5369 5369 5368 5366 5364 5361 5357 5353 5349 5343 5338 5332 5326 5319 5312 5305 5297 5288 5280 5273 5265 5259 5253 5250 5247 5245
5508 5501 5493 5484 5474 5463 5450 5437 5423 5409 5397 5386 5378 5373 5370 5369 5370 5370 5370 5369 5367 5364 5361 5358 5354 5349 5345 5340 5334 5329 5323 5316 5309 5302 5294 5287 5279 5272 5266 5261 5257 5254 5252
Wind_Speed
41 40 39 39 38 36 36 37 37 38 39 40 41 42 45 47 49 50 51 52 55 58 60 62 63 66 69 72 73 74 76 77 78 78 82 87 93 100 106 112 114 111 104
41 40 39 38 37 37 37 37 38 39 40 41 42 44 46 48 49 50 53 55 58 60 62 64 67 69 71 72 74 76 77 80 83 84 88 95 102 108 111 109 101 90 78
40 39 38 37 37 37 37 37 38 38 40 41 43 45 46 48 50 53 56 58 60 63 65 67 69 70 72 74 76 78 81 85 89 93 97 103 107 107 101 90 76 65 58
39 37 37 36 36 37 38 38 38 38 39 41 43 45 47 49 52 55 58 60 63 65 67 68 70 72 74 76 78 82 87 91 97 102 106 106 103 93 80 67 55 50 47
37 36 35 35 36 37 38 38 38 38 38 41 44 46 48 52 55 58 60 62 64 66 68 69 71 73 75 79 84 88 94 99 104 107 106 98 86 71 59 50 43 40 39
34 34 34 35 37 37 37 37 37 37 40 42 44 47 51 54 57 59 62 64 66 67 69 70 72 75 79 84 89 95 100 105 106 102 92 79 65 53 44 39 36 35 34
32 32 34 35 35 35 34 34 36 38 40 43 46 50 53 56 58 61 63 65 67 68 70 72 75 79 84 89 95 100 103 102 94 84 72 59 49 41 37 35 34 32 33
30 31 32 32 31 31 32 34 36 39 42 45 48 52 55 57 60 62 64 65 67 69 71 75 80 85 91 96 100 102 97 86 75 64 55 46 40 38 37 34 32 31 31
28 28 28 28 28 30 32 34 37 41 44 47 50 53 55 58 60 62 64 65 67 70 75 80 85 90 96 100 100 94 81 67 56 49 43 40 39 38 37 35 34 33 31
24 24 24 26 28 30 33 36 40 43 45 48 51 53 56 58 60 62 64 66 69 74 79 85 90 96 99 98 89 75 60 50 45 42 41 40 39 38 38 38 37 35 33
20 22 23 25 28 32 35 39 41 44 46 49 52 54 56 58 59 62 65 70 74 79 84 89 95 98 94 84 70 56 47 42 40 39 38 38 37 38 38 38 38 37 34
19 21 24 27 31 34 37 39 41 44 47 49 52 54 56 58 61 65 70 74 79 83 89 94 95 90 78 63 52 44 40 39 38 37 36 36 36 36 36 36 37 36 35
19 23 26 29 32 35 37 39 42 45 47 49 51 53 56 60 64 68 73 78 83 88 92 92 85 72 58 47 41 38 37 36 35 34 34 34 35 35 34 33 33 33 33
21 25 28 31 33 35 37 40 43 45 47 49 51 54 58 63 67 72 76 81 87 90 88 79 65 53 44 39 37 35 33 33 32 32 32 32 32 32 32 31 29 29 28
25 28 30 31 33 36 39 41 43 45 46 49 52 56 61 66 70 75 81 86 89 87 76 61 49 42 38 35 33 32 31 31 31 31 31 31 30 30 30 29 28 26 25
28 29 30 32 35 37 39 41 42 45 48 51 55 60 65 70 75 80 86 89 85 73 58 45 38 35 32 30 29 30 30 30 31 31 31 30 30 29 28 28 26 25 23
28 30 32 34 36 38 39 41 44 48 52 55 60 65 70 75 80 85 86 81 70 54 42 35 31 30 29 28 27 28 30 31 31 31 30 30 30 29 27 26 25 24 22
29 31 33 35 36 37 39 43 46 50 55 60 65 70 75 81 85 84 78 65 50 39 30 27 26 25 25 26 26 28 30 31 31 30 30 29 29 28 27 26 25 22 20
31 32 34 35 36 39 42 45 49 54 58 63 68 74 80 84 83 75 61 46 34 26 22 21 21 22 23 24 25 27 29 30 30 30 30 30 29 29 27 25 24 21 19
31 33 33 35 38 42 45 49 54 58 63 68 73 79 82 80 71 58 43 30 21 17 17 18 19 20 22 24 25 27 29 30 30 30 30 29 29 28 27 24 22 19 16
32 32 34 38 41 45 49 53 58 62 67 73 79 82 79 69 55 40 27 17 12 12 14 16 17 20 22 24 26 28 29 30 31 30 30 30 29 28 27 24 21 16 12
31 34 37 41 44 48 52 57 61 66 72 78 82 78 68 53 37 23 12 7 8 10 12 14 17 19 22 24 26 28 30 31 31 31 30 30 29 27 25 21 17 13 9
34 37 40 44 47 51 56 60 66 72 78 81 77 67 52 35 20 8 3 4 7 9 12 14 17 20 22 25 27 29 30 32 33 32 31 30 28 25 23 20 16 11 9
37 40 43 46 50 55 60 65 71 77 80 76 65 50 33 18 5 3 5 6 8 10 12 15 17 20 23 25 28 29 31 32 33 34 33 32 30 28 25 22 17 13 11
39 42 46 49 54 59 64 70 76 78 74 64 48 32 16 3 5 7 6 7 8 10 13 15 17 20 22 25 27 29 31 33 34 35 35 35 33 30 27 23 19 16 13
42 45 49 54 59 64 70 75 77 73 63 47 31 16 2 6 8 7 6 6 8 10 12 14 17 19 21 23 25 27 29 31 33 35 35 35 34 32 30 25 21 17 14
Wind_Direction
240 243 249 255 259 263 265 267 270 273 277 280 282 284 285 287 289 292 293 294 296 297 299 299 299 299 300 301 302 302 302 302 302 302 302 302 302 302 301 302 301 300 298
238 242 248 254 258 261 264 267 271 276 280 282 283 285 287 289 292 293 294 296 298 299 300 301 301 302 303 303 304 304 303 303 303 303 303 303 303 303 304 303 302 300 298
236 241 248 254 258 262 266 270 274 279 282 283 285 287 290 291 293 294 297 299 300 301 302 303 304 304 305 305 305 305 305 305 305 305 305 305 305 305 305 303 301 298 297
236 242 249 255 261 266 270 274 278 281 283 285 287 289 291 292 295 297 299 301 302 303 304 305 306 305 305 306 306 307 307 306 306 306 307 307 308 307 304 302 300 298 298
237 244 252 259 265 269 273 276 279 282 284 286 288 290 293 295 298 300 301 302 304 305 306 306 306 306 307 308 308 308 308 307 308 308 309 309 308 306 304 301 300 298 298
241 248 255 262 267 270 273 276 279 282 285 287 290 293 295 298 300 302 303 304 305 306 306 307 307 308 309 309 309 308 309 309 309 310 310 309 308 305 303 301 299 298 297
245 252 258 263 267 269 272 276 280 283 286 289 293 296 298 300 302 303 304 305 306 307 308 309 309 309 309 309 309 310 310 311 310 310 309 309 308 304 303 301 299 298 298
248 255 260 262 265 268 273 277 281 285 289 293 296 298 300 302 303 304 305 307 308 309 310 310 310 310 310 310 311 312 312 312 310 309 310 310 307 305 304 302 300 299 300
248 252 255 260 265 270 275 280 285 289 293 296 299 300 301 302 304 306 307 308 309 310 310 310 310 311 311 312 313 314 313 312 310 309 310 309 308 307 306 305 303 303 302
245 251 257 263 269 275 281 286 290 294 296 298 300 301 302 304 306 307 308 309 310 310 310 311 312 313 313 314 315 315 314 311 310 309 309 309 309 309 308 307 306 305 303
247 255 263 271 278 284 288 291 294 296 298 299 301 302 304 306 307 309 310 311 311 312 312 313 313 314 315 316 316 315 314 312 310 310 309 309 308 308 307 306 306 305 305
259 269 277 283 287 290 292 294 296 298 300 301 303 305 307 308 310 311 311 312 312 313 314 315 315 316 317 316 316 315 315 314 313 312 311 309 308 307 307 307 306 305 305
277 283 286 289 291 293 295 297 299 300 302 304 306 308 309 310 311 312 312 313 314 315 315 316 317 317 317 318 317 317 317 317 316 315 314 312 310 308 308 306 304 305 305
286 289 291 293 294 296 298 300 302 304 305 307 309 310 311 311 312 313 313 314 315 316 317 317 317 317 318 319 319 320 321 321 321 320 319 317 315 312 310 308 305 303 303
293 295 295 296 298 300 302 304 305 307 308 309 310 311 312 313 314 315 316 316 317 317 318 317 316 318 320 322 323 325 326 327 327 327 325 324 322 320 317 314 310 306 304
297 298 299 301 302 304 305 307 308 309 310 311 312 313 315 316 317 318 317 317 318 318 318 317 318 320 323 325 327 328 330 330 330 329 328 327 325 324 321 319 316 312 307
301 302 303 304 305 306 308 310 311 312 313 314 315 317 318 319 319 319 318 318 318 318 318 319 321 325 328 330 331 332 332 332 330 329 328 327 327 325 323 321 318 315 312
303 304 305 306 307 309 311 313 314 314 315 316 317 319 320 320 320 319 319 318 318 319 321 324 328 331 334 335 336 336 335 335 334 332 331 331 330 329 326 323 320 317 314
305 305 307 308 310 312 314 315 315 316 317 318 320 322 322 321 320 319 319 319 319 322 328 334 338 341 343 344 344 343 341 340 339 339 337 336 335 333 331 328 324 320 318
306 307 309 311 313 315 316 316 317 318 320 321 323 323 323 321 320 320 320 321 324 331 341 347 350 353 355 354 352 350 349 348 347 346 344 342 341 340 338 335 331 326 324
309 310 312 314 315 316 317 318 320 321 323 324 324 324 323 321 320 319 320 324 335 346 354 359 2 3 3 1 359 358 357 356 355 353 351 349 348 346 343 339 337 336 337
311 313 314 315 317 319 320 321 323 324 326 326 326 325 323 322 321 321 324 341 0 6 9 11 12 10 9 6 4 3 3 3 1 359 357 355 353 351 349 348 348 352 3
314 315 316 318 320 321 323 324 326 327 327 327 326 325 324 323 323 327 9 39 29 24 22 19 17 15 13 12 11 11 11 10 9 8 7 4 2 2 4 6 10 21 40
316 317 319 321 322 324 325 327 328 328 328 328 327 326 326 327 334 103 94 66 46 36 29 23 20 17 16 15 15 16 17 17 17 17 16 15 15 15 17 21 30 45 60
318 319 321 322 324 326 327 328 329 329 329 328 328 328 330 346 129 124 102 70 49 34 25 20 17 16 16 16 16 18 19 20 22 22 23 22 23 24 27 32 41 53 65
319 321 322 324 326 327 328 328 329 329 328 328 328 330 350 137 137 127 100 61 34 21 14 12 11 11 12 13 15 18 20 22 23 24 26 28 29 31 34 38 44 52 62